Time,TemperatureF,DewpointF,PressureIn,WindDirection,WindDirectionDegrees,WindSpeedMPH,WindSpeedGustMPH,Humidity,HourlyPrecipIn,Conditions,Clouds,dailyrainin,SoftwareType,DateUTC
2013-11-06 00:02:00,44.2,41.2,26.85,SSE,158,0.0,5.1,89,0.00,,,0.00,WUHU216HW,2013-11-06 05:02:00,
2013-11-06 00:07:00,44.2,41.2,26.85,SE,135,2.9,5.1,89,0.00,,,0.00,WUHU216HW,2013-11-06 05:07:00,
2013-11-06 00:13:00,44.2,41.2,26.85,SSE,158,7.3,7.3,89,0.00,,,0.00,WUHU216HW,2013-11-06 05:13:00,
2013-11-06 00:18:00,44.2,41.2,26.85,SSE,158,2.9,7.3,89,0.00,,,0.00,WUHU216HW,2013-11-06 05:18:00,
2013-11-06 00:23:00,44.2,41.2,26.85,SSE,158,0.0,4.0,89,0.00,,,0.00,WUHU216HW,2013-11-06 05:23:00,
2013-11-06 00:28:00,44.4,41.4,26.85,SSE,158,0.0,2.9,89,0.00,,,0.00,WUHU216HW,2013-11-06 05:28:00,
2013-11-06 00:33:00,44.4,41.4,26.85,SE,135,2.0,2.0,89,0.00,,,0.00,WUHU216HW,2013-11-06 05:33:00,
2013-11-06 00:38:00,44.4,41.4,26.85,SE,135,2.6,2.6,89,0.00,,,0.00,WUHU216HW,2013-11-06 05:38:00,
2013-11-06 00:43:00,44.4,41.4,26.85,SSE,158,0.0,2.6,89,0.00,,,0.00,WUHU216HW,2013-11-06 05:43:00,
2013-11-06 00:48:00,44.4,41.7,26.85,SE,135,3.1,3.1,90,0.00,,,0.00,WUHU216HW,2013-11-06 05:48:00,
2013-11-06 00:53:00,44.4,41.7,26.85,SSE,158,0.0,4.2,90,0.00,,,0.00,WUHU216HW,2013-11-06 05:53:00,
2013-11-06 00:58:00,44.4,41.7,26.84,SSE,158,1.5,5.5,90,0.00,,,0.00,WUHU216HW,2013-11-06 05:58:00,
2013-11-06 01:03:00,44.4,41.7,26.84,SE,135,1.5,5.5,90,0.00,,,0.00,WUHU216HW,2013-11-06 06:03:00,
2013-11-06 01:08:00,44.4,41.7,26.84,SSE,158,1.7,3.5,90,0.00,,,0.00,WUHU216HW,2013-11-06 06:08:00,
2013-11-06 01:13:00,44.4,41.5,26.84,SE,135,4.6,4.6,90,0.00,,,0.00,WUHU216HW,2013-11-06 06:13:00,
2013-11-06 01:18:00,44.2,41.5,26.84,SSE,158,0.0,4.6,90,0.00,,,0.00,WUHU216HW,2013-11-06 06:18:00,
2013-11-06 01:23:00,44.4,41.7,26.84,SE,135,7.3,7.3,90,0.00,,,0.00,WUHU216HW,2013-11-06 06:23:00,
2013-11-06 01:28:00,44.2,41.5,26.84,SSE,158,1.7,7.3,90,0.00,,,0.00,WUHU216HW,2013-11-06 06:28:00,
2013-11-06 01:33:00,44.2,41.5,26.84,SSE,158,0.0,3.3,90,0.00,,,0.00,WUHU216HW,2013-11-06 06:33:00,
2013-11-06 01:38:00,44.2,41.5,26.84,SE,135,0.0,1.7,90,0.00,,,0.00,WUHU216HW,2013-11-06 06:38:00,
2013-11-06 01:43:00,44.2,41.5,26.84,SE,135,0.0,0.0,90,0.00,,,0.00,WUHU216HW,2013-11-06 06:43:00,
2013-11-06 01:48:00,44.4,41.7,26.84,SE,135,0.0,0.0,90,0.00,,,0.00,WUHU216HW,2013-11-06 06:48:00,
2013-11-06 01:53:00,44.4,41.7,26.84,SSE,158,3.1,3.1,90,0.00,,,0.00,WUHU216HW,2013-11-06 06:53:00,
2013-11-06 01:58:00,44.4,41.7,26.84,SE,135,0.0,3.1,90,0.00,,,0.00,WUHU216HW,2013-11-06 06:58:00,
2013-11-06 02:03:00,44.4,41.7,26.84,SE,135,0.0,0.0,90,0.00,,,0.00,WUHU216HW,2013-11-06 07:03:00,
2013-11-06 02:08:00,44.4,41.7,26.84,SE,135,0.0,0.0,90,0.00,,,0.00,WUHU216HW,2013-11-06 07:08:00,
2013-11-06 02:13:00,44.4,41.7,26.84,SE,135,0.0,0.0,90,0.00,,,0.00,WUHU216HW,2013-11-06 07:13:00,
2013-11-06 02:18:00,44.4,41.7,26.84,SE,135,0.0,0.0,90,0.00,,,0.00,WUHU216HW,2013-11-06 07:18:00,
2013-11-06 02:23:00,44.4,41.7,26.83,SE,135,0.0,0.0,90,0.00,,,0.00,WUHU216HW,2013-11-06 07:23:00,
2013-11-06 02:28:00,44.4,41.7,26.84,SE,135,0.0,0.0,90,0.00,,,0.00,WUHU216HW,2013-11-06 07:28:00,
2013-11-06 02:33:00,44.4,41.7,26.84,SE,135,0.0,0.0,90,0.00,,,0.00,WUHU216HW,2013-11-06 07:33:00,
2013-11-06 02:38:00,44.6,41.9,26.84,SE,135,0.0,0.0,90,0.00,,,0.00,WUHU216HW,2013-11-06 07:38:00,
2013-11-06 02:43:00,44.6,41.9,26.83,SE,135,0.0,0.0,90,0.00,,,0.00,WUHU216HW,2013-11-06 07:43:00,
2013-11-06 02:48:00,44.6,41.9,26.83,SE,135,0.0,0.0,90,0.00,,,0.00,WUHU216HW,2013-11-06 07:48:00,
2013-11-06 02:53:00,44.6,41.9,26.83,SE,135,0.0,0.0,90,0.00,,,0.00,WUHU216HW,2013-11-06 07:53:00,
2013-11-06 02:58:00,44.7,42.0,26.83,SE,135,0.0,0.0,90,0.00,,,0.00,WUHU216HW,2013-11-06 07:58:00,
2013-11-06 03:03:00,44.7,42.0,26.83,SE,135,0.0,0.0,90,0.00,,,0.00,WUHU216HW,2013-11-06 08:03:00,
2013-11-06 03:08:00,44.7,42.0,26.83,SSE,158,0.0,0.0,90,0.00,,,0.00,WUHU216HW,2013-11-06 08:08:00,
2013-11-06 03:13:00,44.9,42.2,26.83,SSE,158,0.0,0.0,90,0.00,,,0.00,WUHU216HW,2013-11-06 08:13:00,
2013-11-06 03:18:00,44.9,42.2,26.82,SSE,158,0.0,0.0,90,0.00,,,0.00,WUHU216HW,2013-11-06 08:18:00,
2013-11-06 03:23:00,44.9,42.2,26.82,SSE,158,0.0,0.0,90,0.00,,,0.00,WUHU216HW,2013-11-06 08:23:00,
2013-11-06 03:28:00,44.9,42.2,26.82,SE,135,0.0,0.0,90,0.00,,,0.00,WUHU216HW,2013-11-06 08:28:00,
2013-11-06 03:33:00,44.9,42.2,26.82,SE,135,0.0,0.0,90,0.00,,,0.00,WUHU216HW,2013-11-06 08:33:00,
2013-11-06 03:38:00,44.9,42.2,26.82,SE,135,0.0,0.0,90,0.00,,,0.00,WUHU216HW,2013-11-06 08:38:00,
2013-11-06 03:43:00,44.9,42.2,26.82,SSE,158,0.0,0.0,90,0.00,,,0.00,WUHU216HW,2013-11-06 08:43:00,
2013-11-06 03:48:00,44.9,42.2,26.81,SSE,158,0.0,0.0,90,0.00,,,0.00,WUHU216HW,2013-11-06 08:48:00,
2013-11-06 03:53:00,45.1,42.4,26.81,SSE,158,4.2,4.2,90,0.00,,,0.00,WUHU216HW,2013-11-06 08:53:00,
2013-11-06 03:59:00,45.1,42.4,26.81,SSE,158,0.0,4.2,90,0.00,,,0.00,WUHU216HW,2013-11-06 08:59:00,
2013-11-06 04:04:00,45.1,42.4,26.81,SSE,158,0.0,4.2,90,0.00,,,0.00,WUHU216HW,2013-11-06 09:04:00,
2013-11-06 04:09:00,45.1,42.4,26.81,SSE,158,0.0,4.0,90,0.00,,,0.00,WUHU216HW,2013-11-06 09:09:00,
2013-11-06 04:14:00,45.1,42.4,26.81,SE,135,0.0,4.0,90,0.00,,,0.00,WUHU216HW,2013-11-06 09:14:00,
2013-11-06 04:19:00,45.1,42.4,26.80,SE,135,0.0,0.0,90,0.00,,,0.00,WUHU216HW,2013-11-06 09:19:00,
2013-11-06 04:24:00,45.3,42.6,26.80,SE,135,0.0,0.0,90,0.00,,,0.00,WUHU216HW,2013-11-06 09:24:00,
2013-11-06 04:29:00,45.3,42.6,26.80,SSE,158,0.0,0.0,90,0.00,,,0.00,WUHU216HW,2013-11-06 09:29:00,
2013-11-06 04:34:00,45.3,42.6,26.81,SE,135,0.0,0.0,90,0.00,,,0.00,WUHU216HW,2013-11-06 09:34:00,
2013-11-06 04:39:00,45.3,42.6,26.80,SSE,158,0.0,0.0,90,0.00,,,0.00,WUHU216HW,2013-11-06 09:39:00,
2013-11-06 04:44:00,45.1,42.4,26.80,SSE,158,0.0,0.0,90,0.00,,,0.00,WUHU216HW,2013-11-06 09:44:00,
2013-11-06 04:49:00,45.1,42.4,26.80,SE,135,0.0,0.0,90,0.00,,,0.00,WUHU216HW,2013-11-06 09:49:00,
2013-11-06 04:54:00,45.3,42.6,26.80,SE,135,0.0,0.0,90,0.00,,,0.00,WUHU216HW,2013-11-06 09:54:00,
2013-11-06 04:59:00,45.3,42.6,26.80,SE,135,0.0,0.0,90,0.00,,,0.00,WUHU216HW,2013-11-06 09:59:00,
2013-11-06 05:04:00,45.3,42.6,26.80,ESE,113,0.0,0.0,90,0.00,,,0.00,WUHU216HW,2013-11-06 10:04:00,
2013-11-06 05:09:00,45.5,42.8,26.81,ESE,113,0.0,0.0,90,0.00,,,0.00,WUHU216HW,2013-11-06 10:09:00,
2013-11-06 05:14:00,45.5,42.8,26.80,SE,135,0.0,0.0,90,0.00,,,0.00,WUHU216HW,2013-11-06 10:14:00,
2013-11-06 05:19:00,45.6,42.9,26.80,SE,135,0.0,0.0,90,0.00,,,0.00,WUHU216HW,2013-11-06 10:19:00,
2013-11-06 05:24:00,45.6,42.9,26.80,SE,135,0.0,0.0,90,0.00,,,0.00,WUHU216HW,2013-11-06 10:24:00,
2013-11-06 05:29:00,45.6,42.9,26.81,SSE,158,0.0,0.0,90,0.00,,,0.00,WUHU216HW,2013-11-06 10:29:00,
2013-11-06 05:34:00,45.6,42.9,26.80,SSE,158,2.6,2.6,90,0.00,,,0.00,WUHU216HW,2013-11-06 10:34:00,
2013-11-06 05:39:00,45.6,42.9,26.81,SSE,158,0.0,2.6,90,0.00,,,0.00,WUHU216HW,2013-11-06 10:39:00,
2013-11-06 05:44:00,45.6,42.9,26.80,SE,135,0.0,1.5,90,0.00,,,0.00,WUHU216HW,2013-11-06 10:44:00,
2013-11-06 05:49:00,45.6,42.9,26.80,SSE,158,0.4,2.0,90,0.00,,,0.00,WUHU216HW,2013-11-06 10:49:00,
2013-11-06 05:54:00,45.6,43.2,26.81,SSE,158,0.0,2.0,91,0.00,,,0.00,WUHU216HW,2013-11-06 10:54:00,
2013-11-06 05:59:00,45.6,42.9,26.81,SSE,158,0.0,0.0,90,0.00,,,0.00,WUHU216HW,2013-11-06 10:59:00,
2013-11-06 06:04:00,45.6,42.9,26.80,SSE,158,0.0,0.0,90,0.00,,,0.00,WUHU216HW,2013-11-06 11:04:00,
2013-11-06 06:09:00,45.6,43.2,26.80,SE,135,0.0,2.2,91,0.00,,,0.00,WUHU216HW,2013-11-06 11:09:00,
2013-11-06 06:14:00,45.6,43.2,26.80,SE,135,0.0,2.2,91,0.00,,,0.00,WUHU216HW,2013-11-06 11:14:00,
2013-11-06 06:19:00,45.8,43.4,26.80,SE,135,0.0,0.0,91,0.00,,,0.00,WUHU216HW,2013-11-06 11:19:00,
2013-11-06 06:24:00,45.6,43.2,26.80,SSE,158,0.0,0.0,91,0.00,,,0.00,WUHU216HW,2013-11-06 11:24:00,
2013-11-06 06:29:00,45.6,43.2,26.80,SE,135,0.0,0.0,91,0.00,,,0.00,WUHU216HW,2013-11-06 11:29:00,
2013-11-06 06:34:00,45.6,43.2,26.79,SE,135,0.0,0.0,91,0.00,,,0.00,WUHU216HW,2013-11-06 11:34:00,
2013-11-06 06:39:00,46.0,43.6,26.79,SE,135,0.0,0.0,91,0.00,,,0.00,WUHU216HW,2013-11-06 11:39:00,
2013-11-06 06:44:00,45.8,43.4,26.79,SSE,158,1.1,6.4,91,0.00,,,0.00,WUHU216HW,2013-11-06 11:44:00,
2013-11-06 06:49:00,45.6,43.2,26.80,SE,135,0.0,6.4,91,0.00,,,0.00,WUHU216HW,2013-11-06 11:49:00,
2013-11-06 06:54:00,45.6,43.2,26.80,SE,135,0.0,1.1,91,0.00,,,0.00,WUHU216HW,2013-11-06 11:54:00,
2013-11-06 06:59:00,45.6,43.2,26.80,SE,135,0.0,0.0,91,0.00,,,0.00,WUHU216HW,2013-11-06 11:59:00,
2013-11-06 07:04:00,45.6,43.2,26.79,SE,135,0.0,0.0,91,0.00,,,0.00,WUHU216HW,2013-11-06 12:04:00,
2013-11-06 07:09:00,46.0,43.6,26.79,SSE,158,3.3,3.3,91,0.00,,,0.00,WUHU216HW,2013-11-06 12:09:00,
2013-11-06 07:14:00,45.8,43.6,26.80,SE,135,0.0,3.3,91,0.00,,,0.00,WUHU216HW,2013-11-06 12:14:00,
2013-11-06 07:19:00,46.0,43.6,26.80,SSE,158,0.0,0.0,91,0.00,,,0.00,WUHU216HW,2013-11-06 12:19:00,
2013-11-06 07:24:00,46.0,43.6,26.79,SSE,158,0.2,1.7,91,0.00,,,0.00,WUHU216HW,2013-11-06 12:24:00,
2013-11-06 07:29:00,46.0,43.6,26.80,SE,135,2.0,2.0,91,0.00,,,0.00,WUHU216HW,2013-11-06 12:29:00,
2013-11-06 07:34:00,46.2,43.7,26.80,SE,135,0.0,2.0,91,0.00,,,0.00,WUHU216HW,2013-11-06 12:34:00,
2013-11-06 07:40:00,46.2,43.7,26.80,SSE,158,0.0,6.4,91,0.00,,,0.00,WUHU216HW,2013-11-06 12:40:00,
2013-11-06 07:45:00,46.2,43.7,26.80,SSE,158,4.4,6.4,91,0.00,,,0.00,WUHU216HW,2013-11-06 12:45:00,
2013-11-06 07:50:00,46.2,43.7,26.80,SSE,158,0.0,4.4,91,0.00,,,0.00,WUHU216HW,2013-11-06 12:50:00,
2013-11-06 07:55:00,46.2,43.7,26.80,SE,135,0.0,1.1,91,0.00,,,0.00,WUHU216HW,2013-11-06 12:55:00,
2013-11-06 08:00:00,46.4,43.9,26.80,SSE,158,0.0,1.1,91,0.00,,,0.00,WUHU216HW,2013-11-06 13:00:00,
2013-11-06 08:05:00,46.5,44.1,26.80,SSE,158,3.8,6.9,91,0.00,,,0.00,WUHU216HW,2013-11-06 13:05:00,
2013-11-06 08:10:00,46.5,44.1,26.80,SSE,158,0.8,6.9,91,0.00,,,0.00,WUHU216HW,2013-11-06 13:10:00,
2013-11-06 08:15:00,46.5,44.1,26.80,SSE,158,0.0,3.8,91,0.00,,,0.00,WUHU216HW,2013-11-06 13:15:00,
2013-11-06 08:20:00,46.7,44.3,26.81,SE,135,0.0,0.0,91,0.00,,,0.00,WUHU216HW,2013-11-06 13:20:00,
2013-11-06 08:25:00,46.7,44.3,26.81,SE,135,6.7,6.7,91,0.00,,,0.00,WUHU216HW,2013-11-06 13:25:00,
2013-11-06 08:30:00,46.9,44.5,26.81,SE,135,5.3,6.9,91,0.00,,,0.00,WUHU216HW,2013-11-06 13:30:00,
2013-11-06 08:35:00,46.9,44.5,26.81,SSE,158,14.9,14.9,91,0.00,,,0.00,WUHU216HW,2013-11-06 13:35:00,
2013-11-06 08:40:00,46.9,44.5,26.81,SSE,158,0.0,14.9,91,0.00,,,0.00,WUHU216HW,2013-11-06 13:40:00,
2013-11-06 08:45:00,47.1,44.6,26.81,SSE,158,0.6,14.9,91,0.00,,,0.00,WUHU216HW,2013-11-06 13:45:00,
2013-11-06 08:50:00,46.9,44.5,26.81,SSE,158,7.3,10.2,91,0.00,,,0.00,WUHU216HW,2013-11-06 13:50:00,
2013-11-06 08:55:00,47.1,44.6,26.81,SSE,158,5.3,7.3,91,0.00,,,0.00,WUHU216HW,2013-11-06 13:55:00,
2013-11-06 09:00:00,47.4,45.0,26.81,SSE,158,8.9,8.9,91,0.00,,,0.00,WUHU216HW,2013-11-06 14:00:00,
2013-11-06 09:05:00,47.8,45.4,26.81,SSE,158,12.7,12.7,91,0.00,,,0.00,WUHU216HW,2013-11-06 14:05:00,
2013-11-06 09:10:00,48.0,45.5,26.81,SSE,158,5.5,12.7,91,0.00,,,0.00,WUHU216HW,2013-11-06 14:10:00,
2013-11-06 09:15:00,48.0,45.8,26.81,SE,135,5.1,12.7,92,0.00,,,0.00,WUHU216HW,2013-11-06 14:15:00,
2013-11-06 09:20:00,48.2,46.0,26.80,SE,135,0.0,5.1,92,0.00,,,0.00,WUHU216HW,2013-11-06 14:20:00,
2013-11-06 09:25:00,48.3,46.2,26.81,SE,135,4.9,7.3,92,0.00,,,0.00,WUHU216HW,2013-11-06 14:25:00,
2013-11-06 09:30:00,48.3,45.9,26.81,SE,135,8.5,8.5,91,0.00,,,0.00,WUHU216HW,2013-11-06 14:30:00,
2013-11-06 09:35:00,48.3,45.9,26.81,SSE,158,5.1,8.5,91,0.00,,,0.00,WUHU216HW,2013-11-06 14:35:00,
2013-11-06 09:40:00,48.5,46.0,26.81,SSE,158,8.0,8.0,91,0.00,,,0.00,WUHU216HW,2013-11-06 14:40:00,
2013-11-06 09:45:00,48.9,45.9,26.81,SE,135,8.2,8.9,90,0.00,,,0.00,WUHU216HW,2013-11-06 14:45:00,
2013-11-06 09:50:00,49.1,46.3,26.81,SE,135,13.4,13.4,90,0.00,,,0.00,WUHU216HW,2013-11-06 14:50:00,
2013-11-06 09:55:00,49.6,46.1,26.81,SE,135,9.6,13.4,88,0.00,,,0.00,WUHU216HW,2013-11-06 14:55:00,
2013-11-06 10:00:00,49.8,46.3,26.81,SSE,158,6.9,13.4,88,0.00,,,0.00,WUHU216HW,2013-11-06 15:00:00,
2013-11-06 10:05:00,50.3,46.2,26.81,SSE,158,10.9,12.5,86,0.00,,,0.00,WUHU216HW,2013-11-06 15:05:00,
2013-11-06 10:10:00,50.5,46.1,26.80,SSE,158,10.5,10.9,85,0.00,,,0.00,WUHU216HW,2013-11-06 15:10:00,
2013-11-06 10:15:00,50.9,46.1,26.80,SSE,158,4.6,10.9,84,0.00,,,0.00,WUHU216HW,2013-11-06 15:15:00,
2013-11-06 10:20:00,51.2,45.9,26.80,SE,135,12.0,12.0,82,0.00,,,0.00,WUHU216HW,2013-11-06 15:20:00,
2013-11-06 10:25:00,51.4,45.8,26.80,SE,135,4.6,16.7,81,0.00,,,0.00,WUHU216HW,2013-11-06 15:25:00,
2013-11-06 10:30:00,51.4,45.5,26.80,SE,135,6.4,16.7,80,0.00,,,0.00,WUHU216HW,2013-11-06 15:30:00,
2013-11-06 10:35:00,51.4,45.1,26.80,SE,135,10.9,12.0,79,0.00,,,0.00,WUHU216HW,2013-11-06 15:35:00,
2013-11-06 10:40:00,50.9,44.9,26.80,South,180,5.1,10.9,80,0.00,,,0.00,WUHU216HW,2013-11-06 15:40:00,
2013-11-06 10:45:00,50.9,44.9,26.80,SE,135,10.5,10.5,80,0.00,,,0.00,WUHU216HW,2013-11-06 15:45:00,
2013-11-06 10:50:00,50.7,44.7,26.80,SE,135,2.6,10.5,80,0.00,,,0.00,WUHU216HW,2013-11-06 15:50:00,
2013-11-06 10:55:00,50.7,44.7,26.80,SSE,158,10.9,10.9,80,0.00,,,0.00,WUHU216HW,2013-11-06 15:55:00,
2013-11-06 11:01:00,50.7,44.7,26.80,ESE,113,8.9,10.9,80,0.00,,,0.00,WUHU216HW,2013-11-06 16:01:00,
2013-11-06 11:06:00,50.7,44.7,26.80,SSE,158,9.6,10.9,80,0.00,,,0.00,WUHU216HW,2013-11-06 16:06:00,
2013-11-06 11:11:00,50.7,44.7,26.80,South,180,0.0,10.0,80,0.00,,,0.00,WUHU216HW,2013-11-06 16:11:00,
2013-11-06 11:16:00,50.9,44.9,26.80,SE,135,8.5,10.0,80,0.00,,,0.00,WUHU216HW,2013-11-06 16:16:00,
2013-11-06 11:21:00,51.0,45.1,26.80,SE,135,7.6,9.6,80,0.00,,,0.00,WUHU216HW,2013-11-06 16:21:00,
2013-11-06 11:26:00,51.4,45.1,26.79,SE,135,4.0,8.0,79,0.00,,,0.00,WUHU216HW,2013-11-06 16:26:00,
2013-11-06 11:31:00,51.6,44.9,26.79,SE,135,11.8,11.8,78,0.00,,,0.00,WUHU216HW,2013-11-06 16:31:00,
2013-11-06 11:36:00,51.8,44.8,26.79,SSE,158,7.1,11.8,77,0.00,,,0.00,WUHU216HW,2013-11-06 16:36:00,
2013-11-06 11:41:00,52.1,45.1,26.79,SE,135,0.0,10.0,77,0.00,,,0.00,WUHU216HW,2013-11-06 16:41:00,
2013-11-06 11:46:00,52.5,45.1,26.79,SSE,158,7.8,7.8,76,0.00,,,0.00,WUHU216HW,2013-11-06 16:46:00,
2013-11-06 11:51:00,52.7,45.3,26.79,SSE,158,5.1,12.7,76,0.00,,,0.00,WUHU216HW,2013-11-06 16:51:00,
2013-11-06 11:56:00,52.8,45.1,26.79,SE,135,7.8,12.7,75,0.00,,,0.00,WUHU216HW,2013-11-06 16:56:00,
2013-11-06 12:01:00,52.8,45.1,26.78,SE,135,6.2,7.8,75,0.00,,,0.00,WUHU216HW,2013-11-06 17:01:00,
2013-11-06 12:06:00,52.8,44.8,26.78,SE,135,1.7,11.1,74,0.00,,,0.00,WUHU216HW,2013-11-06 17:06:00,
2013-11-06 12:11:00,52.7,44.2,26.78,SE,135,5.5,11.4,73,0.00,,,0.00,WUHU216HW,2013-11-06 17:11:00,
2013-11-06 12:16:00,52.7,44.6,26.78,SSE,158,6.9,12.0,74,0.00,,,0.00,WUHU216HW,2013-11-06 17:16:00,
2013-11-06 12:21:00,52.7,44.6,26.77,SSE,158,8.0,12.0,74,0.00,,,0.00,WUHU216HW,2013-11-06 17:21:00,
2013-11-06 12:26:00,52.8,44.4,26.77,SE,135,2.0,13.1,73,0.00,,,0.00,WUHU216HW,2013-11-06 17:26:00,
2013-11-06 12:31:00,53.0,44.9,26.77,SSE,158,6.9,13.1,74,0.00,,,0.00,WUHU216HW,2013-11-06 17:31:00,
2013-11-06 12:36:00,53.4,45.3,26.77,SSE,158,2.6,7.1,74,0.00,,,0.00,WUHU216HW,2013-11-06 17:36:00,
2013-11-06 12:41:00,53.7,45.1,26.76,SSE,158,0.0,7.3,73,0.00,,,0.00,WUHU216HW,2013-11-06 17:41:00,
2013-11-06 12:46:00,54.1,45.6,26.76,SSE,158,9.6,9.6,73,0.00,,,0.00,WUHU216HW,2013-11-06 17:46:00,
2013-11-06 12:51:00,54.3,46.1,26.76,SSE,158,6.2,9.6,74,0.00,,,0.00,WUHU216HW,2013-11-06 17:51:00,
2013-11-06 12:56:00,54.6,46.1,26.75,SE,135,2.0,6.2,73,0.00,,,0.00,WUHU216HW,2013-11-06 17:56:00,
2013-11-06 13:01:00,54.6,46.1,26.75,SE,135,12.3,12.3,73,0.00,,,0.00,WUHU216HW,2013-11-06 18:01:00,
2013-11-06 13:06:00,55.0,46.1,26.74,SE,135,0.0,12.3,72,0.00,,,0.00,WUHU216HW,2013-11-06 18:06:00,
2013-11-06 13:11:00,55.4,46.5,26.74,South,180,12.7,12.7,72,0.00,,,0.00,WUHU216HW,2013-11-06 18:11:00,
2013-11-06 13:16:00,55.4,46.5,26.74,SSE,158,8.7,12.7,72,0.00,,,0.00,WUHU216HW,2013-11-06 18:16:00,
2013-11-06 13:21:00,55.5,46.3,26.74,SSE,158,0.0,12.7,71,0.00,,,0.00,WUHU216HW,2013-11-06 18:21:00,
2013-11-06 13:26:00,55.9,46.6,26.74,SE,135,6.7,6.7,71,0.00,,,0.00,WUHU216HW,2013-11-06 18:26:00,
2013-11-06 13:31:00,55.9,46.8,26.74,SSE,158,4.4,6.7,71,0.00,,,0.00,WUHU216HW,2013-11-06 18:31:00,
2013-11-06 13:36:00,56.1,46.8,26.74,SE,135,4.2,5.5,71,0.00,,,0.00,WUHU216HW,2013-11-06 18:36:00,
2013-11-06 13:41:00,56.3,47.0,26.74,WSW,248,6.4,6.4,71,0.00,,,0.00,WUHU216HW,2013-11-06 18:41:00,
2013-11-06 13:46:00,56.1,46.5,26.74,SE,135,7.3,8.5,70,0.00,,,0.00,WUHU216HW,2013-11-06 18:46:00,
2013-11-06 13:51:00,56.1,46.8,26.74,WSW,248,0.0,8.5,71,0.00,,,0.00,WUHU216HW,2013-11-06 18:51:00,
2013-11-06 13:56:00,56.3,47.0,26.73,SE,135,0.0,3.3,71,0.00,,,0.00,WUHU216HW,2013-11-06 18:56:00,
2013-11-06 14:01:00,56.4,46.8,26.73,SE,135,0.0,0.0,70,0.00,,,0.00,WUHU216HW,2013-11-06 19:01:00,
2013-11-06 14:06:00,56.4,46.8,26.73,SE,135,0.0,0.8,70,0.00,,,0.00,WUHU216HW,2013-11-06 19:06:00,
2013-11-06 14:11:00,56.4,46.8,26.73,ESE,113,0.0,0.8,70,0.00,,,0.00,WUHU216HW,2013-11-06 19:11:00,
2013-11-06 14:17:00,56.4,46.8,26.72,SSE,158,5.5,5.5,70,0.00,,,0.00,WUHU216HW,2013-11-06 19:17:00,
2013-11-06 14:22:00,56.4,46.8,26.72,SE,135,6.4,6.4,70,0.00,,,0.00,WUHU216HW,2013-11-06 19:22:00,
2013-11-06 14:27:00,56.4,46.8,26.71,SSE,158,4.9,6.4,70,0.00,,,0.00,WUHU216HW,2013-11-06 19:27:00,
2013-11-06 14:32:00,56.4,46.8,26.71,SE,135,4.4,6.4,70,0.00,,,0.00,WUHU216HW,2013-11-06 19:32:00,
2013-11-06 14:37:00,56.4,46.8,26.71,SSE,158,1.1,5.1,70,0.00,,,0.00,WUHU216HW,2013-11-06 19:37:00,
2013-11-06 14:42:00,56.4,46.8,26.71,SE,135,0.0,5.1,70,0.00,,,0.00,WUHU216HW,2013-11-06 19:42:00,
2013-11-06 14:47:00,56.4,46.8,26.71,SE,135,5.3,5.3,70,0.00,,,0.00,WUHU216HW,2013-11-06 19:47:00,
2013-11-06 14:52:00,56.4,46.8,26.71,SSE,158,2.4,6.0,70,0.00,,,0.00,WUHU216HW,2013-11-06 19:52:00,
2013-11-06 14:57:00,56.4,46.8,26.71,SSE,158,2.4,6.0,70,0.00,,,0.00,WUHU216HW,2013-11-06 19:57:00,
2013-11-06 15:02:00,56.4,46.8,26.71,SE,135,4.0,4.0,70,0.00,,,0.00,WUHU216HW,2013-11-06 20:02:00,
2013-11-06 15:07:00,56.4,46.8,26.71,SE,135,0.0,7.3,70,0.00,,,0.00,WUHU216HW,2013-11-06 20:07:00,
2013-11-06 15:12:00,56.4,46.8,26.71,SSE,158,1.1,7.3,70,0.00,,,0.00,WUHU216HW,2013-11-06 20:12:00,
2013-11-06 15:17:00,56.3,46.6,26.71,SSE,158,0.0,4.6,70,0.00,,,0.00,WUHU216HW,2013-11-06 20:17:00,
2013-11-06 15:22:00,56.3,46.6,26.71,South,180,5.5,5.5,70,0.00,,,0.00,WUHU216HW,2013-11-06 20:22:00,
2013-11-06 15:27:00,56.4,46.8,26.71,SSE,158,0.0,5.5,70,0.00,,,0.00,WUHU216HW,2013-11-06 20:27:00,
2013-11-06 15:32:00,56.4,46.8,26.71,WSW,248,4.0,5.5,70,0.00,,,0.00,WUHU216HW,2013-11-06 20:32:00,
2013-11-06 15:37:00,56.6,46.9,26.71,SSE,158,0.0,8.0,70,0.00,,,0.00,WUHU216HW,2013-11-06 20:37:00,
2013-11-06 15:42:00,56.8,46.7,26.71,SE,135,0.0,8.0,69,0.00,,,0.00,WUHU216HW,2013-11-06 20:42:00,
2013-11-06 15:47:00,56.4,46.4,26.71,SE,135,2.9,9.1,69,0.00,,,0.00,WUHU216HW,2013-11-06 20:47:00,
2013-11-06 15:52:00,56.4,46.4,26.71,SSE,158,0.0,9.1,69,0.00,,,0.00,WUHU216HW,2013-11-06 20:52:00,
2013-11-06 15:57:00,56.3,46.2,26.71,SE,135,0.0,6.0,69,0.00,,,0.00,WUHU216HW,2013-11-06 20:57:00,
2013-11-06 16:02:00,56.1,46.5,26.70,SE,135,6.2,6.2,70,0.00,,,0.00,WUHU216HW,2013-11-06 21:02:00,
2013-11-06 16:07:00,55.9,46.3,26.69,SSE,158,1.1,8.0,70,0.00,,,0.00,WUHU216HW,2013-11-06 21:07:00,
2013-11-06 16:12:00,55.9,46.3,26.69,SSE,158,5.5,8.0,70,0.00,,,0.00,WUHU216HW,2013-11-06 21:12:00,
2013-11-06 16:17:00,55.9,46.3,26.69,SSE,158,2.9,5.5,70,0.00,,,0.00,WUHU216HW,2013-11-06 21:17:00,
2013-11-06 16:22:00,55.9,46.3,26.69,SSE,158,4.9,4.9,70,0.00,,,0.00,WUHU216HW,2013-11-06 21:22:00,
2013-11-06 16:27:00,55.7,46.1,26.69,SE,135,0.2,6.4,70,0.00,,,0.00,WUHU216HW,2013-11-06 21:27:00,
2013-11-06 16:32:00,55.7,46.1,26.69,SE,135,0.0,6.4,70,0.00,,,0.00,WUHU216HW,2013-11-06 21:32:00,
2013-11-06 16:37:00,55.5,46.0,26.69,SSE,158,0.0,3.3,70,0.00,,,0.00,WUHU216HW,2013-11-06 21:37:00,
2013-11-06 16:42:00,55.5,46.0,26.68,SSE,158,7.1,7.1,70,0.00,,,0.00,WUHU216HW,2013-11-06 21:42:00,
2013-11-06 16:47:00,55.4,45.8,26.68,SSE,158,3.3,10.9,70,0.00,,,0.00,WUHU216HW,2013-11-06 21:47:00,
2013-11-06 16:52:00,55.2,46.0,26.69,SE,135,6.0,10.9,71,0.00,,,0.00,WUHU216HW,2013-11-06 21:52:00,
2013-11-06 16:57:00,55.2,46.0,26.68,SSE,158,0.0,6.0,71,0.00,,,0.00,WUHU216HW,2013-11-06 21:57:00,
2013-11-06 17:02:00,55.0,46.1,26.68,SE,135,0.0,6.2,72,0.00,,,0.00,WUHU216HW,2013-11-06 22:02:00,
2013-11-06 17:07:00,54.6,45.8,26.69,SSE,158,4.0,9.6,72,0.00,,,0.00,WUHU216HW,2013-11-06 22:07:00,
2013-11-06 17:12:00,54.5,45.6,26.68,SE,135,9.3,9.6,72,0.00,,,0.00,WUHU216HW,2013-11-06 22:12:00,
2013-11-06 17:17:00,54.3,45.4,26.68,SE,135,7.6,9.3,72,0.00,,,0.00,WUHU216HW,2013-11-06 22:17:00,
2013-11-06 17:22:00,54.1,45.6,26.68,SSE,158,8.7,8.7,73,0.00,,,0.00,WUHU216HW,2013-11-06 22:22:00,
2013-11-06 17:27:00,53.9,45.4,26.68,SE,135,6.9,8.7,73,0.00,,,0.00,WUHU216HW,2013-11-06 22:27:00,
2013-11-06 17:32:00,53.7,45.6,26.67,SSE,158,0.0,8.7,74,0.00,,,0.00,WUHU216HW,2013-11-06 22:32:00,
2013-11-06 17:37:00,53.4,45.3,26.67,SE,135,4.0,8.0,74,0.00,,,0.00,WUHU216HW,2013-11-06 22:37:00,
2013-11-06 17:42:00,53.4,45.3,26.67,SE,135,0.0,4.0,74,0.00,,,0.00,WUHU216HW,2013-11-06 22:42:00,
2013-11-06 17:47:00,53.2,45.5,26.67,SSE,158,6.7,6.9,75,0.00,,,0.00,WUHU216HW,2013-11-06 22:47:00,
2013-11-06 17:52:00,53.2,45.5,26.68,SSE,158,0.0,6.9,75,0.00,,,0.00,WUHU216HW,2013-11-06 22:52:00,
2013-11-06 17:57:00,52.8,45.1,26.68,South,180,0.0,0.0,75,0.00,,,0.00,WUHU216HW,2013-11-06 22:57:00,
2013-11-06 18:02:00,52.7,44.9,26.68,South,180,0.0,0.0,75,0.00,,,0.00,WUHU216HW,2013-11-06 23:02:00,
2013-11-06 18:07:00,52.7,45.3,26.68,SSE,158,0.0,0.0,76,0.00,,,0.00,WUHU216HW,2013-11-06 23:07:00,
2013-11-06 18:12:00,52.5,45.1,26.68,SSE,158,0.0,5.8,76,0.00,,,0.00,WUHU216HW,2013-11-06 23:12:00,
2013-11-06 18:17:00,52.5,45.1,26.68,SSE,158,4.9,5.8,76,0.00,,,0.00,WUHU216HW,2013-11-06 23:17:00,
2013-11-06 18:22:00,52.3,44.9,26.68,SSE,158,0.0,4.9,76,0.00,,,0.00,WUHU216HW,2013-11-06 23:22:00,
2013-11-06 18:28:00,52.1,45.1,26.68,SSE,158,8.2,8.2,77,0.00,,,0.00,WUHU216HW,2013-11-06 23:28:00,
2013-11-06 18:33:00,51.9,44.9,26.67,SSE,158,2.2,8.2,77,0.00,,,0.00,WUHU216HW,2013-11-06 23:33:00,
2013-11-06 18:38:00,51.8,45.1,26.67,SE,135,7.3,8.2,78,0.00,,,0.00,WUHU216HW,2013-11-06 23:38:00,
2013-11-06 18:43:00,51.6,45.3,26.67,SE,135,12.3,17.0,79,0.00,,,0.00,WUHU216HW,2013-11-06 23:43:00,
2013-11-06 18:48:00,51.6,45.3,26.67,SE,135,4.0,17.0,79,0.00,,,0.00,WUHU216HW,2013-11-06 23:48:00,
2013-11-06 18:53:00,51.4,45.1,26.67,SE,135,6.0,12.3,79,0.00,,,0.00,WUHU216HW,2013-11-06 23:53:00,
2013-11-06 18:58:00,51.2,45.3,26.67,SE,135,0.0,11.8,80,0.00,,,0.00,WUHU216HW,2013-11-06 23:58:00,
2013-11-06 19:03:00,51.0,45.1,26.68,SSE,158,4.2,6.9,80,0.00,,,0.00,WUHU216HW,2013-11-07 00:03:00,
2013-11-06 19:08:00,51.0,45.1,26.68,SSE,158,6.9,8.7,80,0.00,,,0.00,WUHU216HW,2013-11-07 00:08:00,
2013-11-06 19:13:00,50.9,44.9,26.68,SSE,158,3.5,8.7,80,0.00,,,0.00,WUHU216HW,2013-11-07 00:13:00,
2013-11-06 19:18:00,50.9,45.2,26.67,SE,135,2.9,6.4,81,0.00,,,0.00,WUHU216HW,2013-11-07 00:18:00,
2013-11-06 19:23:00,50.7,45.0,26.68,SE,135,0.0,6.2,81,0.00,,,0.00,WUHU216HW,2013-11-07 00:23:00,
2013-11-06 19:28:00,50.9,45.2,26.67,SE,135,2.6,4.0,81,0.00,,,0.00,WUHU216HW,2013-11-07 00:28:00,
2013-11-06 19:33:00,50.7,45.0,26.67,SSE,158,6.0,7.8,81,0.00,,,0.00,WUHU216HW,2013-11-07 00:33:00,
2013-11-06 19:38:00,50.7,45.3,26.67,SSE,158,4.2,7.8,82,0.00,,,0.00,WUHU216HW,2013-11-07 00:38:00,
2013-11-06 19:43:00,50.7,45.3,26.66,SSE,158,0.0,8.0,82,0.00,,,0.00,WUHU216HW,2013-11-07 00:43:00,
2013-11-06 19:48:00,50.9,45.5,26.66,SE,135,7.8,8.0,82,0.00,,,0.00,WUHU216HW,2013-11-07 00:48:00,
2013-11-06 19:53:00,50.9,45.5,26.66,SSE,158,1.7,7.8,82,0.00,,,0.00,WUHU216HW,2013-11-07 00:53:00,
2013-11-06 19:58:00,51.0,45.7,26.66,SSE,158,8.9,8.9,82,0.00,,,0.00,WUHU216HW,2013-11-07 00:58:00,
2013-11-06 20:03:00,51.0,45.7,26.66,SE,135,7.8,8.9,82,0.00,,,0.00,WUHU216HW,2013-11-07 01:03:00,
2013-11-06 20:08:00,51.0,45.7,26.66,SE,135,5.3,8.9,82,0.00,,,0.00,WUHU216HW,2013-11-07 01:08:00,
2013-11-06 20:13:00,51.2,45.9,26.66,ENE,68,0.0,8.2,82,0.00,,,0.00,WUHU216HW,2013-11-07 01:13:00,
2013-11-06 20:18:00,51.0,45.7,26.66,ESE,113,0.0,0.0,82,0.00,,,0.00,WUHU216HW,2013-11-07 01:18:00,
2013-11-06 20:23:00,51.0,45.7,26.66,ESE,113,0.0,6.0,82,0.00,,,0.00,WUHU216HW,2013-11-07 01:23:00,
2013-11-06 20:28:00,51.0,45.7,26.66,SSE,158,0.0,6.0,82,0.00,,,0.00,WUHU216HW,2013-11-07 01:28:00,
2013-11-06 20:33:00,51.2,45.9,26.66,South,180,0.0,0.0,82,0.00,,,0.00,WUHU216HW,2013-11-07 01:33:00,
2013-11-06 20:38:00,51.2,45.9,26.66,ESE,113,3.8,3.8,82,0.00,,,0.00,WUHU216HW,2013-11-07 01:38:00,
2013-11-06 20:43:00,51.2,46.2,26.66,South,180,0.0,3.8,83,0.00,,,0.00,WUHU216HW,2013-11-07 01:43:00,
2013-11-06 20:48:00,51.2,45.9,26.66,South,180,0.0,3.8,82,0.00,,,0.00,WUHU216HW,2013-11-07 01:48:00,
2013-11-06 20:53:00,51.2,46.2,26.65,SE,135,4.6,5.3,83,0.00,,,0.00,WUHU216HW,2013-11-07 01:53:00,
2013-11-06 20:58:00,51.0,46.0,26.66,SE,135,0.0,6.7,83,0.00,,,0.00,WUHU216HW,2013-11-07 01:58:00,
2013-11-06 21:03:00,51.0,46.0,26.65,South,180,0.0,6.7,83,0.00,,,0.00,WUHU216HW,2013-11-07 02:03:00,
2013-11-06 21:08:00,50.9,45.8,26.65,SE,135,0.0,0.0,83,0.00,,,0.00,WUHU216HW,2013-11-07 02:08:00,
2013-11-06 21:13:00,51.0,46.0,26.65,South,180,2.4,2.4,83,0.00,,,0.00,WUHU216HW,2013-11-07 02:13:00,
2013-11-06 21:18:00,51.0,46.0,26.65,SSE,158,0.0,2.4,83,0.00,,,0.00,WUHU216HW,2013-11-07 02:18:00,
2013-11-06 21:23:00,50.9,45.8,26.65,SSW,203,0.0,2.4,83,0.00,,,0.00,WUHU216HW,2013-11-07 02:23:00,
2013-11-06 21:28:00,50.9,45.8,26.64,SSE,158,8.9,8.9,83,0.00,,,0.00,WUHU216HW,2013-11-07 02:28:00,
2013-11-06 21:33:00,50.9,46.1,26.64,SE,135,5.8,8.9,84,0.00,,,0.00,WUHU216HW,2013-11-07 02:33:00,
2013-11-06 21:38:00,50.9,46.1,26.64,South,180,0.0,6.7,84,0.00,,,0.00,WUHU216HW,2013-11-07 02:38:00,
2013-11-06 21:43:00,50.9,46.1,26.64,SSE,158,4.0,6.7,84,0.00,,,0.00,WUHU216HW,2013-11-07 02:43:00,
2013-11-06 21:48:00,50.9,46.1,26.64,SSE,158,0.0,6.7,84,0.00,,,0.00,WUHU216HW,2013-11-07 02:48:00,
2013-11-06 21:53:00,50.7,46.0,26.64,South,180,0.0,5.3,84,0.00,,,0.00,WUHU216HW,2013-11-07 02:53:00,
2013-11-06 21:58:00,50.7,46.0,26.64,SSE,158,0.0,2.9,84,0.00,,,0.00,WUHU216HW,2013-11-07 02:58:00,
2013-11-06 22:03:00,50.7,46.0,26.64,SSE,158,7.6,7.6,84,0.00,,,0.00,WUHU216HW,2013-11-07 03:03:00,
2013-11-06 22:08:00,50.7,46.0,26.64,SSE,158,4.0,7.6,84,0.00,,,0.00,WUHU216HW,2013-11-07 03:08:00,
2013-11-06 22:13:00,50.7,46.0,26.63,South,180,0.0,7.6,84,0.00,,,0.00,WUHU216HW,2013-11-07 03:13:00,
2013-11-06 22:19:00,50.7,46.0,26.64,South,180,0.0,4.0,84,0.00,,,0.00,WUHU216HW,2013-11-07 03:19:00,
2013-11-06 22:24:00,50.7,46.0,26.64,SE,135,2.9,5.5,84,0.00,,,0.00,WUHU216HW,2013-11-07 03:24:00,
2013-11-06 22:29:00,50.7,46.0,26.63,SSE,158,4.9,5.5,84,0.00,,,0.00,WUHU216HW,2013-11-07 03:29:00,
2013-11-06 22:34:00,50.7,46.0,26.63,South,180,0.0,4.9,84,0.00,,,0.00,WUHU216HW,2013-11-07 03:34:00,
2013-11-06 22:39:00,50.7,46.0,26.63,SE,135,0.0,0.0,84,0.00,,,0.00,WUHU216HW,2013-11-07 03:39:00,
2013-11-06 22:44:00,50.7,46.0,26.63,South,180,0.0,0.0,84,0.00,,,0.00,WUHU216HW,2013-11-07 03:44:00,
2013-11-06 22:49:00,50.7,46.0,26.63,SSE,158,0.0,0.0,84,0.00,,,0.00,WUHU216HW,2013-11-07 03:49:00,
2013-11-06 22:54:00,50.5,45.8,26.63,SSE,158,0.0,0.0,84,0.00,,,0.00,WUHU216HW,2013-11-07 03:54:00,
2013-11-06 22:59:00,50.5,45.8,26.63,SSE,158,0.0,0.0,84,0.00,,,0.00,WUHU216HW,2013-11-07 03:59:00,
2013-11-06 23:04:00,50.5,45.8,26.63,SSE,158,0.0,0.0,84,0.00,,,0.00,WUHU216HW,2013-11-07 04:04:00,
2013-11-06 23:09:00,50.3,45.6,26.63,SSE,158,0.0,0.0,84,0.00,,,0.00,WUHU216HW,2013-11-07 04:09:00,
2013-11-06 23:14:00,50.5,45.8,26.62,South,180,0.0,0.0,84,0.00,,,0.00,WUHU216HW,2013-11-07 04:14:00,
2013-11-06 23:19:00,50.5,45.8,26.62,South,180,0.0,0.0,84,0.00,,,0.00,WUHU216HW,2013-11-07 04:19:00,
2013-11-06 23:24:00,50.5,45.8,26.63,South,180,0.0,0.0,84,0.00,,,0.00,WUHU216HW,2013-11-07 04:24:00,
2013-11-06 23:29:00,50.5,45.8,26.62,South,180,0.0,0.0,84,0.00,,,0.00,WUHU216HW,2013-11-07 04:29:00,
2013-11-06 23:34:00,50.5,45.8,26.62,SSE,158,0.0,0.0,84,0.00,,,0.00,WUHU216HW,2013-11-07 04:34:00,
2013-11-06 23:39:00,50.5,45.8,26.62,SW,225,0.0,0.0,84,0.00,,,0.00,WUHU216HW,2013-11-07 04:39:00,
2013-11-06 23:44:00,50.5,45.8,26.62,SSW,203,0.0,0.0,84,0.00,,,0.00,WUHU216HW,2013-11-07 04:44:00,
2013-11-06 23:49:00,50.5,45.8,26.62,SSW,203,0.0,0.0,84,0.00,,,0.00,WUHU216HW,2013-11-07 04:49:00,
2013-11-06 23:54:00,50.7,46.0,26.62,WSW,248,0.0,0.0,84,0.00,,,0.00,WUHU216HW,2013-11-07 04:54:00,
2013-11-06 23:59:00,50.7,46.0,26.62,SSW,203,0.0,0.0,84,0.00,,,0.00,WUHU216HW,2013-11-07 04:59:00,